Probability
0 0 0 0 0 0 1 1 1 1 7 15 20 20 18 19 24 31 37 39 40 42 40 34 30 28 25 24 24 22 20 19 19 19 20 22 21 19 18 17 16 16 16 16
0 0 0 0 0 0 0 1 1 3 8 15 21 23 21 20 22 29 36 38 39 40 40 37 31 26 21 20 20 20 19 19 19 19 20 20 18 17 17 17 17 17 16 15
0 0 0 0 1 1 0 1 3 7 11 17 23 25 23 20 21 27 33 36 36 37 38 36 31 25 19 17 16 16 17 18 18 18 19 19 17 17 18 19 20 18 16 15
1 0 0 1 2 1 1 3 5 10 14 17 20 21 20 19 22 28 35 37 38 39 38 34 31 26 20 16 15 16 17 18 18 17 18 19 19 19 21 21 20 18 15 14
3 1 1 2 2 2 3 5 8 12 14 13 14 17 20 23 27 34 41 44 43 42 39 35 32 28 23 18 16 17 17 17 17 18 19 21 21 21 22 22 20 17 14 12
2 1 1 2 3 4 6 9 13 17 17 15 17 22 28 33 36 40 45 46 45 42 38 37 36 32 27 22 18 18 17 17 18 20 21 20 20 20 20 21 20 17 12 9
1 0 0 1 4 8 12 17 22 26 25 25 27 30 34 38 40 41 42 43 41 39 37 38 38 34 28 24 21 20 18 17 19 21 20 17 17 18 18 19 19 16 12 9
0 1 3 5 8 13 20 24 28 29 28 30 33 33 33 34 36 36 37 38 37 35 34 35 36 34 29 25 23 21 20 20 22 23 20 16 16 16 17 17 16 14 12 11
2 5 8 12 13 15 19 22 23 23 22 25 28 28 27 27 28 30 31 34 35 32 30 31 32 32 29 27 24 22 22 23 24 23 21 19 17 16 16 15 13 12 11 11
5 7 10 11 12 12 13 15 16 15 16 18 21 23 23 22 23 25 27 30 33 31 29 28 29 29 29 29 27 24 22 22 21 21 21 20 18 16 15 14 12 11 11 11
5 6 7 7 7 7 8 10 12 13 13 15 16 19 21 22 24 26 27 28 30 28 26 26 26 26 27 30 29 25 21 17 16 16 17 17 16 14 12 10 10 10 11 11
4 4 5 5 5 4 5 6 9 11 11 11 13 16 21 25 29 30 28 28 27 25 24 24 24 24 26 29 29 25 21 16 12 13 15 15 14 10 7 5 5 6 7 7
5 4 3 4 4 4 4 5 6 7 8 9 11 15 20 25 29 30 29 27 25 23 23 23 22 21 22 25 26 24 20 16 13 13 15 16 13 9 5 3 2 2 2 2
5 3 1 2 3 4 5 6 5 5 5 7 9 12 15 20 23 25 25 24 21 21 20 19 18 16 17 20 23 21 18 15 13 14 15 16 13 9 6 5 4 1 0 0
3 3 1 1 2 4 5 4 4 4 4 6 9 11 12 14 18 20 20 17 15 15 14 13 13 13 15 18 20 18 15 12 11 12 13 13 11 9 6 5 4 2 1 0
1 2 2 2 3 4 4 3 3 4 4 6 9 11 11 13 15 17 16 11 8 9 10 11 11 11 13 16 15 13 10 8 8 9 9 9 9 8 6 5 4 3 2 2
1 2 3 3 4 4 3 3 4 5 5 6 8 10 11 13 14 15 14 11 7 7 10 10 10 9 10 10 9 7 7 6 5 6 6 6 7 7 6 5 4 4 4 3
1 2 3 3 3 3 3 4 5 6 6 6 6 7 8 12 14 14 13 10 7 7 8 9 8 8 8 7 5 4 4 4 4 4 5 6 6 6 6 5 3 3 3 3
1 2 3 3 3 3 4 5 7 8 7 6 6 6 7 9 12 14 12 9 8 7 7 7 7 7 7 6 4 3 3 4 4 4 5 6 6 6 6 4 2 2 1 1
2 2 2 3 3 4 5 5 6 6 6 6 6 7 7 8 10 13 12 9 8 8 7 6 7 7 7 5 3 3 3 4 4 4 5 6 6 5 4 2 0 0 0 0
3 3 3 3 4 4 4 4 4 5 5 5 5 6 7 8 9 11 12 10 8 6 6 6 6 6 5 4 3 3 3 5 5 5 4 4 4 4 2 1 0 0 0 0
4 4 3 3 4 4 3 3 4 5 6 5 4 4 5 6 8 8 9 9 7 5 4 5 4 4 4 4 3 2 2 3 4 3 2 2 2 3 3 1 0 0 0 0
4 4 3 3 2 2 2 3 4 5 5 3 2 3 4 4 4 4 5 6 5 4 3 4 3 3 3 4 3 2 1 1 2 1 0 1 1 2 2 2 1 0 0 0
3 2 1 2 1 2 2 3 3 3 3 1 1 2 3 3 2 1 1 2 3 3 3 3 3 2 2 3 3 2 0 1 1 1 0 1 1 1 1 1 1 0 0 0
2 1 1 2 2 3 3 3 2 1 1 0 0 1 2 1 1 0 1 2 3 3 3 3 2 1 2 3 3 2 1 1 1 1 0 2 2 2 2 2 1 0 0 0
2 3 3 3 3 3 2 1 1 0 0 0 0 0 0 0 0 1 2 3 3 3 3 2 1 1 2 3 2 2 2 2 2 1 2 3 4 3 3 3 2 1 1 1
2 3 4 4 3 3 1 0 0 0 0 0 0 0 0 0 1 2 3 3 3 3 3 2 2 2 3 3 2 1 2 2 2 2 3 4 5 5 3 2 1 1 2 2
Wind_Speed
15 15 14 14 14 14 14 12 12 10 7 5 4 4 5 5 6 8 7 7 7 7 6 6 6 5 4 3 3 4 4 4 4 4 3 3 3 3 3 2 2 2 2 1
15 16 15 15 14 14 14 13 12 11 8 4 6 5 5 6 6 7 7 7 7 7 6 6 6 5 4 3 3 3 4 4 4 4 4 4 3 4 3 2 2 2 3 3
13 14 14 15 13 13 13 11 10 10 7 3 2 4 4 5 6 6 7 7 7 6 6 5 5 4 4 4 4 3 3 4 4 4 3 3 4 4 3 3 2 1 2 3
10 11 14 9 8 10 11 9 7 5 3 2 2 3 4 4 5 5 5 6 7 6 5 5 5 5 4 4 4 4 3 4 4 4 3 3 3 3 3 3 2 2 1 2
8 10 11 9 6 7 8 8 5 4 3 3 4 4 4 4 4 4 5 6 6 6 5 5 5 5 4 3 3 3 3 3 4 4 4 4 4 3 3 2 2 2 2 3
9 10 9 5 6 8 8 7 2 2 2 2 4 3 2 4 4 5 5 6 6 6 5 5 4 4 4 3 3 3 2 2 3 3 4 4 4 4 3 3 2 2 3 3
12 11 6 4 8 8 6 2 3 3 2 1 1 3 4 4 4 4 5 6 6 6 5 5 4 4 4 3 2 2 2 2 2 3 3 3 4 4 3 3 3 3 3 3
10 10 6 4 5 2 2 4 3 4 4 4 5 5 5 4 4 4 4 5 5 5 5 4 4 4 4 3 2 1 2 2 2 2 3 3 4 4 3 4 4 3 3 3
3 3 1 3 3 3 3 4 4 4 4 3 3 3 3 3 3 3 3 3 4 5 5 4 3 3 3 3 2 2 2 2 2 2 2 3 4 4 3 3 3 3 3 3
2 2 2 3 3 4 3 3 4 3 2 0 1 2 2 3 2 1 1 2 2 4 4 4 3 3 3 3 2 2 2 2 2 3 3 3 3 3 3 3 3 3 3 2
3 3 3 2 4 4 4 3 2 1 1 0 1 1 1 2 2 2 1 1 2 3 4 4 3 3 3 3 3 2 2 2 2 3 3 2 2 1 1 1 1 1 1 1
2 3 3 2 2 3 2 2 2 2 2 2 2 1 1 2 2 2 3 3 3 3 4 4 4 3 3 3 3 3 3 2 2 2 2 3 3 2 4 3 4 5 4 3
2 3 4 2 3 3 3 3 2 2 3 2 3 2 2 2 2 2 2 3 3 3 3 3 3 3 3 3 3 3 3 2 2 2 2 2 3 3 3 2 2 2 3 4
3 2 2 1 1 3 3 3 2 2 3 3 3 3 2 2 2 2 2 2 3 3 4 3 3 3 2 3 3 3 2 2 2 2 1 2 2 2 3 4 3 1 1 3
2 2 2 2 2 2 3 2 1 2 2 3 3 3 2 2 2 2 2 2 2 2 2 2 2 2 2 2 2 2 2 2 2 2 2 2 2 2 2 3 3 3 2 2
3 2 2 1 1 1 1 2 2 2 2 3 4 3 3 3 3 2 3 3 3 2 1 1 1 1 1 1 2 2 2 2 2 2 2 2 1 1 1 2 2 2 3 3
2 2 2 2 1 1 2 2 2 3 3 3 3 3 3 3 3 3 3 3 2 1 1 1 1 0 0 1 2 2 2 2 4 3 3 2 1 1 1 1 1 1 2 3
2 1 2 2 1 1 1 2 2 2 2 2 2 3 3 2 2 2 2 2 1 1 1 2 2 2 1 1 1 1 2 2 2 3 2 1 1 1 1 1 1 1 2 3
1 1 1 1 1 0 1 2 2 2 2 2 2 3 2 2 2 2 2 2 1 1 2 3 2 2 1 1 2 2 2 2 2 2 2 2 1 1 1 2 1 2 1 2
0 0 0 0 1 1 1 2 2 2 2 2 2 2 2 2 2 2 1 2 1 1 1 2 1 2 2 1 2 3 2 2 2 1 1 1 1 1 1 1 1 1 1 1
0 1 1 1 1 1 2 2 2 2 2 2 2 2 2 2 1 1 1 1 2 2 1 0 1 1 1 2 3 4 2 1 1 1 1 1 1 1 1 1 1 1 1 0
1 1 1 1 2 2 2 2 2 2 2 2 2 2 1 1 1 1 1 1 1 1 1 1 0 1 1 2 3 3 2 1 1 0 0 1 1 1 1 1 1 1 1 1
2 2 1 2 2 2 2 1 1 1 1 1 1 1 1 1 1 0 0 0 1 1 1 1 1 1 1 2 3 2 1 1 1 1 1 1 1 1 1 0 0 0 0 0
2 2 2 1 1 1 1 1 1 1 1 1 1 0 0 0 0 0 1 2 3 2 0 1 1 1 1 2 2 2 1 1 0 0 1 0 0 1 1 1 1 1 1 1
1 1 1 1 1 1 1 1 1 1 1 1 0 0 0 0 0 1 1 2 3 2 1 1 3 3 2 2 2 2 2 0 0 1 1 1 1 0 0 1 1 1 1 1
1 0 0 1 1 0 0 0 0 1 1 0 0 1 1 1 1 1 1 1 1 1 1 0 2 3 3 2 2 2 1 0 1 0 1 1 1 2 2 2 2 1 1 1
1 1 1 0 0 1 1 1 0 0 0 1 1 1 1 1 1 1 0 0 0 1 0 1 0 1 1 0 1 1 1 1 2 2 2 2 2 2 3 3 2 2 1 1
Wind_Direction
263 266 263 253 244 243 246 250 256 262 243 189 166 160 149 136 141 145 144 149 150 148 142 143 142 140 142 148 144 142 144 147 148 153 156 158 156 152 145 152 155 141 144 134
263 259 258 258 254 248 248 251 254 258 255 193 162 147 137 137 149 145 150 149 144 142 144 147 148 149 151 150 144 138 146 148 150 158 162 161 156 151 148 142 133 142 144 133
258 260 261 250 245 248 247 248 255 260 260 216 152 138 149 151 151 153 158 151 151 150 150 151 150 152 157 157 148 148 148 151 156 154 160 162 161 149 145 136 127 123 135 119
256 258 250 253 258 252 250 246 238 228 247 215 134 111 107 116 131 139 151 152 150 147 150 152 144 145 152 158 156 162 161 161 161 158 155 154 145 138 138 134 134 144 145 126
256 247 253 258 272 275 270 250 230 223 218 199 139 129 119 91 88 105 122 129 135 141 152 149 147 147 150 153 154 159 168 169 169 165 158 162 159 152 149 144 156 170 161 140
254 255 251 268 293 291 273 242 217 228 225 211 163 184 126 81 73 87 98 112 125 136 139 141 146 146 150 155 154 159 164 170 171 167 162 163 153 155 159 164 177 173 160 155
245 253 257 309 302 290 249 249 5 18 18 32 73 75 91 81 80 87 99 118 125 134 140 146 149 145 147 151 155 165 149 151 152 151 153 159 152 157 167 177 181 189 171 160
237 246 250 316 296 303 3 12 21 38 33 51 79 95 98 93 86 90 103 123 131 136 138 141 143 145 152 152 146 147 129 130 134 152 183 168 162 171 183 188 187 191 183 171
241 245 306 0 25 36 25 359 33 50 50 42 87 112 107 92 90 82 103 121 134 137 137 139 143 149 155 145 146 146 135 134 149 172 185 163 171 180 190 198 199 187 181 180
247 250 302 341 20 22 34 31 33 63 78 338 102 115 118 106 101 92 110 120 132 144 144 143 150 151 148 154 154 155 156 155 171 185 189 173 187 187 193 195 201 195 184 175
239 287 306 349 18 11 33 29 25 49 47 324 101 126 128 127 150 165 159 152 162 158 156 161 161 151 154 154 157 161 161 172 205 203 190 169 170 168 186 131 156 171 143 129
296 324 307 322 360 3 12 25 18 4 2 38 64 77 120 143 152 162 167 155 155 157 160 161 163 160 156 155 159 165 180 192 213 213 190 181 168 131 57 96 109 115 124 130
353 338 322 326 350 1 14 15 14 3 9 40 49 49 74 109 126 130 135 140 156 163 160 157 159 158 155 155 165 183 196 190 224 215 204 202 178 160 144 97 79 91 130 143
14 343 314 322 16 16 14 15 14 30 26 41 64 58 58 74 88 96 114 138 140 147 151 155 154 153 157 153 169 191 200 182 215 215 215 219 193 183 173 169 168 169 172 179
355 336 322 348 19 32 14 11 29 52 44 47 69 72 77 90 94 99 98 100 102 117 133 140 143 142 148 156 168 188 202 194 220 235 228 216 211 208 199 180 173 173 149 139
328 335 341 347 13 38 33 15 10 39 44 48 57 52 48 78 90 84 82 91 100 101 100 108 118 138 153 164 174 183 205 200 230 238 235 225 211 215 194 174 171 163 154 146
295 320 335 329 4 32 14 2 5 25 36 51 64 72 64 65 79 77 83 81 89 90 88 80 92 74 165 185 200 209 217 201 220 239 237 213 210 221 217 201 155 157 142 135
261 272 291 306 328 24 359 355 6 20 30 43 80 82 77 72 83 79 73 75 91 71 64 58 46 12 317 256 260 251 243 234 221 226 233 211 204 217 220 188 156 162 141 142
283 276 293 322 333 334 11 8 8 16 24 37 69 83 83 79 79 77 66 65 62 52 48 47 29 321 298 338 295 267 251 236 229 234 231 170 183 212 213 205 195 177 182 166
349 26 309 300 320 8 37 35 21 9 23 52 69 71 62 56 65 70 66 57 34 22 32 37 337 315 303 23 310 277 254 235 214 204 223 201 192 222 216 201 192 178 188 193
348 5 18 42 41 34 33 32 25 34 44 56 69 72 67 59 55 61 53 47 29 21 22 45 273 301 323 343 289 276 272 249 216 184 197 212 198 208 218 215 201 186 175 186
356 14 22 49 64 51 36 28 31 45 54 59 60 57 60 52 41 69 69 59 66 33 309 296 299 45 344 314 283 278 272 259 236 203 180 217 224 221 207 211 179 170 193 206
17 27 36 57 67 77 67 64 62 66 71 65 50 41 28 8 351 33 345 84 111 123 275 347 35 105 167 265 270 270 259 263 290 278 236 203 212 191 175 194 162 184 221 227
21 25 40 60 58 83 102 109 86 84 101 89 93 102 309 309 14 81 96 117 121 142 217 85 138 163 225 258 269 267 271 245 197 243 284 312 263 161 157 173 195 196 202 208
46 33 46 50 72 83 73 118 128 133 132 121 107 72 122 54 45 60 71 95 124 160 196 182 194 199 220 249 251 255 263 293 35 2 359 354 334 347 217 200 202 200 196 184
70 70 28 340 336 311 234 194 175 154 147 125 75 10 6 75 94 76 99 120 123 176 240 171 164 181 214 241 259 267 289 110 175 198 2 12 15 9 25 36 42 58 63 76
153 168 185 247 301 300 288 256 200 204 95 64 36 5 1 19 57 73 39 93 149 204 230 22 15 192 221 292 350 14 22 40 47 40 42 45 48 46 39 35 35 43 49 60